GW3011 Weather Reports


time (UTC)temp
C
wind
direction
speed
KPH
gust
KPH
rain 1hr
cm
rain 24hr
cm
rain mn
cm
humidity
%
barometer
mb
20260901160926 23 71 0.0 0.0 0.18 0.15 0.15 98 1015.1
20260901160422 23 34 0.0 0.0 0.00 0.13 0.13 98 1015.3
20260901155921 23 18 0.0 0.0 0.13 0.13 0.13 98 1015.3
20260901155421 23 143 0.0 0.0 0.13 0.13 0.13 98 1015.5
20260901154918 23 98 0.0 0.0 0.00 0.10 0.10 98 1015.6
20260901154417 23 147 0.0 0.0 0.00 0.10 0.10 98 1015.7
20260901153912 23 101 0.0 0.0 0.30 0.10 0.10 99 1015.9
20260901153411 23 176 0.0 0.0 0.48 0.10 0.10 98 1015.8
20260901152906 23 156 0.0 0.0 0.30 0.08 0.08 96 1015.6
20260901152400 23 122 0.0 0.0 0.00 0.03 0.03 94 1015.5
20260901151855 23 131 0.0 0.0 0.00 0.03 0.03 92 1015.6
20260901151350 24 185 0.0 0.0 0.00 0.03 0.03 92 1015.6
20260901150849 24 138 0.0 0.0 0.00 0.03 0.03 91 1015.6
20260901150347 24 197 0.0 0.0 0.00 0.03 0.03 91 1015.9
20260901145844 25 198 0.0 0.0 0.00 0.03 0.03 90 1015.8
20260901145339 24 100 0.0 0.0 0.00 0.03 0.03 89 1015.7
20260901144834 24 100 0.0 0.0 0.00 0.03 0.03 90 1015.6
20260901144329 24 84 0.0 0.0 0.00 0.03 0.03 90 1015.5
20260901143825 24 99 0.0 0.0 0.00 0.03 0.03 89 1015.5
20260901143316 24 128 0.0 0.0 0.00 0.03 0.03 91 1015.5
20260901142812 24 137 0.0 0.0 0.00 0.03 0.03 91 1015.3
20260901142310 24 111 0.0 0.0 0.00 0.03 0.03 90 1015.6
20260901141806 24 109 0.0 0.0 0.00 0.03 0.03 90 1015.3
20260901141301 24 108 0.0 0.0 0.00 0.03 0.03 91 1015.4
20260901140800 24 93 0.0 0.0 0.00 0.03 0.03 91 1015.1
20260901140258 23 106 0.0 0.0 0.00 0.03 0.03 91 1015.2
20260901135754 24 84 0.0 0.0 0.00 0.03 0.03 90 1015.2
20260901135253 23 144 0.0 0.0 0.00 0.03 0.03 91 1015.1
20260901134750 24 113 0.0 0.0 0.00 0.03 0.03 90 1015.3
20260901134249 23 70 0.0 0.0 0.00 0.03 0.03 92 1015.3
20260901133748 23 135 0.0 0.0 0.00 0.03 0.03 92 1015.4
20260901133242 23 98 0.0 0.0 0.00 0.03 0.03 93 1015.2
20260901132741 23 67 0.0 0.0 0.00 0.03 0.03 94 1015.1
20260901132236 23 48 0.0 0.0 0.00 0.03 0.03 94 1015.1
20260901131730 23 91 0.0 0.0 0.00 0.03 0.03 94 1015.5
20260901131230 23 101 0.0 0.0 0.00 0.03 0.03 94 1015.2
20260901130725 23 86 0.0 0.0 0.00 0.03 0.03 94 1015.3
20260901130224 23 137 0.0 0.0 0.00 0.03 0.03 94 1015.2
20260901125722 23 136 0.0 0.0 0.00 0.03 0.03 95 1015.2
20260901125218 22 115 0.0 0.0 0.00 0.03 0.03 95 1015.3
20260901124712 23 100 0.0 0.0 0.00 0.03 0.03 93 1015.0
20260901124206 23 102 0.0 0.0 0.00 0.03 0.03 94 1015.3
20260901123701 23 91 0.0 0.0 0.00 0.03 0.03 94 1015.4
20260901123156 22 102 0.0 0.0 0.00 0.03 0.03 94 1015.4
20260901122654 22 88 0.0 0.0 0.00 0.03 0.03 96 1015.1
20260901122149 22 93 0.0 0.0 0.00 0.03 0.03 96 1015.4
20260901121643 22 96 0.0 0.0 0.00 0.03 0.03 97 1015.3
20260901121138 22 79 0.0 0.0 0.13 0.03 0.03 97 1015.3
20260901120633 22 93 0.0 0.0 0.13 0.03 0.03 97 1015.3
20260901120128 22 159 0.0 0.0 0.00 0.00 0.00 96 1015.5
20260901115623 22 143 0.0 0.0 0.00 0.00 0.00 96 1015.6
20260901115120 22 171 0.0 0.0 0.00 0.00 0.00 94 1015.5
20260901114616 22 100 0.0 0.0 0.00 0.00 0.00 91 1015.4
20260901114115 22 109 0.0 0.0 0.00 0.00 0.00 94 1015.3
20260901113613 22 74 0.0 0.0 0.00 0.00 0.00 93 1015.4
20260901113103 22 136 0.0 0.0 0.00 0.00 0.00 91 1015.6
20260901112602 22 96 0.0 0.0 0.00 0.00 0.00 93 1015.6
20260901112057 22 124 0.0 0.0 0.00 0.00 0.00 91 1015.8
20260901111556 22 147 0.0 0.0 0.00 0.00 0.00 91 1015.9
20260901111054 22 107 0.0 0.0 0.00 0.00 0.00 91 1015.7
20260901110551 22 115 0.0 0.0 0.00 0.00 0.00 92 1015.9
20260901110047 22 130 0.0 0.0 0.00 0.00 0.00 91 1015.5
20260901105543 22 134 0.0 0.0 0.00 0.00 0.00 92 1015.5
20260901105041 22 134 0.0 0.0 0.00 0.00 0.00 92 1015.4
20260901104538 22 107 0.0 0.0 0.00 0.00 0.00 92 1015.5
20260901104033 22 73 0.0 0.0 0.00 0.00 0.00 93 1015.4
20260901103527 22 111 0.0 0.0 0.00 0.00 0.00 92 1015.5
20260901103023 22 90 0.0 0.0 0.00 0.00 0.00 91 1015.3
20260901102517 22 117 0.0 0.0 0.00 0.00 0.00 93 1015.4
20260901102012 22 123 0.0 0.0 0.00 0.00 0.00 92 1015.5
20260901101508 22 120 0.0 0.0 0.00 0.00 0.00 93 1015.2
20260901101002 22 138 0.0 0.0 0.00 0.00 0.00 92 1015.3
20260901100502 22 117 0.0 0.0 0.00 0.00 0.00 92 1015.2
20260901100000 22 134 0.0 0.0 0.00 0.00 0.00 92 1015.4
20260901095459 22 131 0.0 0.0 0.00 0.00 0.00 92 1015.5
20260901094957 22 93 0.0 0.0 0.00 0.00 0.00 92 1015.4
20260901094452 22 117 0.0 0.0 0.00 0.00 0.00 93 1015.1
20260901093947 22 88 0.0 0.0 0.00 0.00 0.00 92 1015.2
20260901093441 22 126 0.0 0.0 0.00 0.00 0.00 91 1015.4
20260901092936 22 87 0.0 0.0 0.00 0.00 0.00 91 1015.2
20260901092432 22 100 0.0 0.0 0.00 0.00 0.00 91 1015.4
20260901091928 22 99 0.0 0.0 0.00 0.00 0.00 92 1015.5
20260901091428 22 161 0.0 0.0 0.00 0.00 0.00 92 1015.5
20260901090923 22 98 0.0 0.0 0.00 0.00 0.00 92 1015.5
20260901090422 22 120 0.0 0.0 0.00 0.00 0.00 91 1015.6
20260901085918 22 174 0.0 0.0 0.00 0.00 0.00 92 1015.6
20260901085414 22 122 0.0 0.0 0.00 0.00 0.00 91 1015.6
20260901084910 22 109 0.0 0.0 0.00 0.00 0.00 92 1015.8
20260901084406 22 132 0.0 0.0 0.00 0.00 0.00 91 1015.7
20260901083901 22 73 0.0 0.0 0.00 0.00 0.00 92 1015.6
20260901083356 22 98 0.0 0.0 0.00 0.00 0.00 91 1015.8
20260901082854 22 134 0.0 0.0 0.00 0.00 0.00 91 1015.9
20260901082349 22 140 0.0 0.0 0.00 0.00 0.00 92 1015.7
20260901081844 22 93 0.0 0.0 0.00 0.00 0.00 92 1015.6
20260901081340 22 99 0.0 0.0 0.00 0.00 0.00 92 1015.6
20260901080833 22 90 0.0 0.0 0.00 0.00 0.00 92 1015.6
20260901080328 22 122 0.0 0.0 0.00 0.00 0.00 91 1015.8
20260901075828 22 151 0.0 0.0 0.00 0.00 0.00 91 1016.0
20260901075323 22 177 0.0 0.0 0.00 0.00 0.00 92 1016.0
20260901074818 22 124 0.0 0.0 0.00 0.00 0.00 92 1015.8
20260901074312 22 132 0.0 0.0 0.00 0.00 0.00 92 1015.6
20260901073808 22 107 0.0 0.0 0.00 0.00 0.00 91 1015.8
20260901073303 22 105 0.0 0.0 0.00 0.00 0.00 90 1015.9
20260901072759 22 105 0.0 0.0 0.00 0.00 0.00 91 1015.7
20260901072259 22 138 0.0 0.0 0.00 0.00 0.00 91 1015.8
20260901071754 22 155 0.0 0.0 0.00 0.00 0.00 91 1015.6
20260901071253 22 116 0.0 0.0 0.00 0.00 0.00 91 1016.1
20260901070752 22 94 0.0 0.0 0.00 0.00 0.00 91 1016.0
20260901070248 22 92 0.0 0.0 0.00 0.00 0.00 90 1016.1
20260901065747 22 92 0.0 0.0 0.00 0.00 0.00 91 1015.9
20260901065242 22 96 0.0 0.0 0.00 0.00 0.00 92 1015.9
20260901064738 22 100 0.0 0.0 0.00 0.00 0.00 91 1016.0
20260901064234 22 89 0.0 0.0 0.00 0.00 0.00 91 1016.0
20260901063731 22 117 0.0 0.0 0.00 0.00 0.00 90 1016.2
20260901063227 22 78 0.0 0.0 0.00 0.00 0.00 91 1016.3
20260901062723 22 155 0.0 0.0 0.00 0.00 0.00 90 1016.1
20260901062219 22 114 0.0 0.0 0.00 0.00 0.00 89 1016.3
20260901061714 22 78 0.0 0.0 0.00 0.00 0.00 89 1016.3
20260901061214 22 69 0.0 0.0 0.00 0.00 0.00 90 1016.5
20260901060709 22 94 0.0 0.0 0.00 0.00 0.00 90 1016.4
20260901060159 22 103 0.0 0.0 0.00 0.00 0.00 91 1016.5
20260901055654 22 93 0.0 0.0 0.00 0.00 0.00 90 1016.5
20260901055151 22 111 0.0 0.0 0.00 0.00 0.00 90 1016.6
20260901054648 22 115 0.0 0.0 0.00 0.00 0.00 91 1016.9
20260901054144 22 129 0.0 0.0 0.00 0.00 0.00 90 1016.8
20260901053640 22 129 0.0 0.0 0.00 0.00 0.00 90 1016.8
20260901053136 22 101 0.0 0.0 0.00 0.00 0.00 89 1016.7
20260901052630 22 66 0.0 0.0 0.00 0.00 0.00 90 1016.9
20260901052126 22 88 0.0 0.0 0.00 0.00 0.00 90 1016.9
20260901051625 22 107 0.0 0.0 0.00 0.00 0.00 89 1017.1
20260901051124 22 100 0.0 0.0 0.00 0.00 0.00 89 1017.0
20260901050620 22 72 0.0 0.0 0.00 0.00 0.00 89 1017.0
20260901050115 22 123 0.0 0.0 0.00 0.00 0.00 88 1016.9
20260901045609 22 80 0.0 0.0 0.00 0.00 0.00 87 1016.9
20260901045104 22 43 0.0 0.0 0.00 0.00 0.00 87 1016.9
20260901044600 22 97 0.0 0.0 0.00 0.00 0.00 86 1017.1
20260901044055 22 130 0.0 0.0 0.00 0.00 0.00 87 1016.9
20260901043551 22 114 0.0 0.0 0.00 0.00 0.00 86 1017.0
20260901043047 22 95 0.0 0.0 0.00 0.00 0.00 87 1017.0
20260901042546 22 58 0.0 0.0 0.00 0.00 0.00 88 1017.0
20260901042041 22 154 0.0 0.0 0.00 0.00 0.00 88 1017.0
20260901041536 22 121 0.0 0.0 0.00 0.00 0.00 87 1017.3
20260901041036 22 127 0.0 0.0 0.00 0.00 0.00 86 1017.2
20260901040536 22 78 0.0 0.0 0.00 0.00 0.00 87 1017.2
20260901040031 22 162 0.0 0.0 0.00 0.00 0.00 86 1017.1
20260901035529 22 37 0.0 0.0 0.00 0.00 0.00 87 1017.1
20260901035028 22 150 0.0 0.0 0.00 0.00 0.00 85 1017.1
20260901034527 22 123 0.0 0.0 0.00 0.00 0.00 85 1017.2
20260901034022 22 103 0.0 0.0 0.00 0.00 0.00 86 1017.1
20260901033521 22 89 0.0 0.0 0.00 0.00 0.00 86 1017.3
20260901033021 22 83 0.0 0.0 0.00 0.00 0.00 87 1017.5
20260901032515 22 99 0.0 0.0 0.00 0.00 0.00 86 1017.3
20260901032015 22 104 0.0 0.0 0.00 0.00 0.00 85 1017.3
20260901031510 22 128 0.0 0.0 0.00 0.00 0.00 87 1017.4
20260901031006 22 129 0.0 0.0 0.00 0.00 0.00 87 1017.3
20260901030501 22 340 0.0 0.0 0.00 0.00 0.00 87 1017.2
20260901030000 22 99 0.0 0.0 0.00 0.00 0.00 85 1017.5
20260901025455 22 98 0.0 0.0 0.00 0.00 0.00 86 1017.4
20260901024954 22 103 0.0 0.0 0.00 0.00 0.00 85 1017.5
20260901024449 22 266 0.0 0.0 0.00 0.00 0.00 87 1017.9
20260901023948 22 91 0.0 0.0 0.00 0.00 0.00 86 1017.7
20260901023442 22 177 0.0 0.0 0.00 0.00 0.00 86 1018.0
20260901022937 22 281 0.0 0.0 0.00 0.00 0.00 86 1017.7
20260901022433 22 169 0.0 0.0 0.00 0.00 0.00 87 1017.7
20260901021928 22 250 0.0 0.0 0.00 0.00 0.00 87 1017.8
20260901021424 22 281 0.0 0.0 0.00 0.00 0.00 87 1018.0
20260901020919 22 42 0.0 0.0 0.00 0.00 0.00 86 1017.7
20260901020414 22 106 0.0 0.0 0.00 0.00 0.00 85 1017.8
20260901015913 22 114 0.0 0.0 0.00 0.00 0.00 85 1017.8
20260901015410 22 42 0.0 0.0 0.00 0.00 0.00 87 1017.8
20260901014909 22 36 0.0 0.0 0.00 0.00 0.00 86 1017.9
20260901014405 22 122 0.0 0.0 0.00 0.00 0.00 86 1017.6
20260901013900 22 330 0.0 0.0 0.00 0.00 0.00 86 1017.9
20260901013356 22 122 0.0 0.0 0.00 0.00 0.00 86 1018.0
20260901012852 22 153 0.0 0.0 0.00 0.00 0.00 85 1017.9
20260901012346 22 162 0.0 0.0 0.00 0.00 0.00 85 1017.9
20260901011842 22 355 0.0 0.0 0.00 0.00 0.00 85 1018.2
20260901011338 22 88 0.0 0.0 0.00 0.00 0.00 85 1018.2
20260901010837 22 325 0.0 0.0 0.00 0.00 0.00 85 1018.1
20260901010337 22 57 0.0 0.0 0.00 0.00 0.00 86 1017.9
20260901005835 22 55 0.0 0.0 0.00 0.00 0.00 86 1017.9
20260901005331 22 148 0.0 0.0 0.00 0.00 0.00 85 1017.8
20260901004826 22 112 0.0 0.0 0.00 0.00 0.00 85 1017.7
20260901004320 22 73 0.0 0.0 0.00 0.00 0.00 86 1017.6
20260901003821 22 76 0.0 0.0 0.00 0.00 0.00 85 1017.7
20260901003316 22 259 0.0 0.0 0.00 0.00 0.00 86 1017.8
20260901002814 22 335 0.0 0.0 0.00 0.00 0.00 86 1017.6
20260901002309 22 19 0.0 0.0 0.00 0.00 0.00 85 1017.5
20260901001804 22 69 0.0 0.0 0.00 0.00 0.00 85 1017.6
20260901001259 22 180 0.0 0.0 0.00 0.00 0.00 85 1017.8
20260901000754 22 319 0.0 0.0 0.00 0.00 0.00 84 1017.7
20260901000250 22 339 0.0 0.0 0.00 0.00 0.00 84 1017.8
20260831235748 22 43 0.0 0.0 0.00 0.00 0.00 84 1017.7
20260831235244 22 336 0.0 0.0 0.00 0.00 0.00 84 1017.9
20260831234739 22 2 0.0 0.0 0.00 0.00 0.00 84 1017.7
20260831234238 22 268 0.0 0.0 0.00 0.00 0.00 84 1017.9
20260831233734 22 6 0.0 0.0 0.00 0.00 0.00 83 1017.8
20260831233229 22 308 0.0 0.0 0.00 0.00 0.00 83 1017.8
20260831232724 22 51 0.0 0.0 0.00 0.00 0.00 83 1017.7
20260831232220 22 303 0.0 0.0 0.00 0.00 0.00 82 1017.7
20260831231716 22 355 0.0 0.0 0.00 0.00 0.00 82 1017.8
20260831231212 23 311 0.0 0.0 0.00 0.00 0.00 81 1017.9
20260831230712 23 7 0.0 0.0 0.00 0.00 0.00 81 1017.6
20260831230208 23 192 0.0 0.0 0.00 0.00 0.00 81 1017.9
20260831225707 23 316 0.0 0.0 0.00 0.00 0.00 81 1017.9
20260831225202 23 58 0.0 0.0 0.00 0.00 0.00 81 1017.8
20260831224657 23 216 0.0 0.0 0.00 0.00 0.00 80 1018.0
20260831224152 23 94 0.0 0.0 0.00 0.00 0.00 79 1017.8
20260831223648 23 99 0.0 0.0 0.00 0.00 0.00 79 1017.8
20260831223144 23 269 0.0 0.0 0.00 0.00 0.00 79 1017.8
20260831222639 23 224 0.0 0.0 0.00 0.00 0.00 79 1017.8
20260831222135 23 60 0.0 0.0 0.00 0.00 0.00 79 1017.9
20260831221630 23 77 0.0 0.0 0.00 0.00 0.00 78 1017.8
20260831221125 23 3 0.0 0.0 0.00 0.00 0.00 78 1017.9
20260831220621 24 80 0.0 0.0 0.00 0.00 0.00 76 1018.2
20260831220116 24 107 0.0 0.0 0.00 0.00 0.00 76 1018.1
20260831215611 24 80 0.0 0.0 0.00 0.00 0.00 76 1018.2
20260831215107 24 72 0.0 0.0 0.00 0.00 0.00 75 1018.0
20260831214604 23 101 0.0 0.0 0.00 0.00 0.00 76 1017.8
20260831214100 24 97 0.0 0.0 0.00 0.00 0.00 76 1017.9
20260831213556 24 233 0.0 0.0 0.00 0.00 0.00 76 1018.3
20260831213051 24 44 0.0 0.0 0.00 0.00 0.00 76 1018.0
20260831212547 23 97 0.0 0.0 0.00 0.00 0.00 77 1018.1
20260831212043 24 305 0.0 0.0 0.00 0.00 0.00 77 1018.4
20260831211537 23 152 0.0 0.0 0.00 0.00 0.00 78 1018.1
20260831211036 23 38 0.0 0.0 0.00 0.00 0.00 77 1018.3
20260831210531 24 237 0.0 0.0 0.00 0.00 0.00 77 1018.4
20260831210028 24 304 0.0 0.0 0.00 0.00 0.00 75 1018.5
20260831205522 24 190 0.0 0.0 0.00 0.00 0.00 77 1018.3
20260831205018 23 63 0.0 0.0 0.00 0.00 0.00 79 1018.3
20260831204518 23 88 0.0 0.0 0.00 0.00 0.00 77 1018.2
20260831204016 23 341 0.0 0.0 0.00 0.00 0.00 76 1018.1
20260831203511 23 37 0.0 0.0 0.00 0.00 0.00 77 1018.2
20260831203010 23 329 0.0 0.0 0.00 0.00 0.00 77 1018.2
20260831202504 23 44 0.0 0.0 0.00 0.00 0.00 76 1018.3
20260831202003 23 301 0.0 0.0 0.00 0.00 0.00 76 1018.3
20260831201502 24 110 0.0 0.0 0.00 0.00 0.00 75 1018.7
20260831200958 23 69 0.0 0.0 0.00 0.00 0.00 77 1018.7
20260831200453 23 297 0.0 0.0 0.00 0.00 0.00 78 1018.7
20260831195948 23 73 0.0 0.0 0.00 0.00 0.00 77 1018.6
20260831195444 23 103 0.0 0.0 0.00 0.00 0.00 79 1018.8
20260831194938 23 103 0.0 0.0 0.00 0.00 0.00 78 1019.0
20260831194434 23 104 0.0 0.0 0.00 0.00 0.00 77 1018.9
20260831193933 23 101 0.0 0.0 0.00 0.00 0.00 79 1019.0
20260831193429 24 107 0.0 0.0 0.00 0.00 0.00 78 1018.8
20260831192924 25 53 0.0 0.0 0.00 0.00 0.00 72 1018.8
20260831192419 25 112 0.0 0.0 0.00 0.00 0.00 71 1018.9
20260831191914 25 47 0.0 0.0 0.00 0.00 0.00 71 1019.1
20260831191410 25 92 0.0 0.0 0.00 0.00 0.00 71 1019.0
20260831190906 25 35 0.0 0.0 0.00 0.00 0.00 70 1019.0
20260831190406 25 14 0.0 0.0 0.00 0.00 0.00 71 1019.1
20260831185905 25 38 0.0 0.0 0.00 0.00 0.00 70 1019.0
20260831185401 25 327 0.0 0.0 0.00 0.00 0.00 69 1019.2
20260831184900 26 289 0.0 0.0 0.00 0.00 0.00 68 1018.9
20260831184355 26 179 0.0 0.0 0.00 0.00 0.00 67 1019.1
20260831183851 26 176 0.0 0.0 0.00 0.00 0.00 66 1018.8
20260831183350 26 353 0.0 0.0 0.00 0.00 0.00 66 1019.1
20260831182849 26 27 0.0 0.0 0.00 0.00 0.00 66 1019.0
20260831182345 26 283 0.0 0.0 0.00 0.00 0.00 67 1019.1
20260831181840 26 241 0.0 0.0 0.00 0.00 0.00 63 1018.9
20260831181335 26 346 0.0 0.0 0.00 0.00 0.00 67 1019.3
20260831180830 27 304 0.0 0.0 0.00 0.00 0.00 62 1019.2
20260831180325 26 286 0.0 0.0 0.00 0.00 0.00 64 1019.2
20260831175824 27 49 0.0 0.0 0.00 0.00 0.00 62 1019.3
20260831175320 26 216 0.0 0.0 0.00 0.00 0.00 64 1019.3
20260831174816 27 91 0.0 0.0 0.00 0.00 0.00 63 1019.4
20260831174312 26 115 0.0 0.0 0.00 0.00 0.00 64 1019.2
20260831173811 27 307 0.0 0.0 0.00 0.00 0.00 63 1019.4
20260831173305 26 350 0.0 0.0 0.00 0.00 0.00 64 1019.1
20260831172800 25 318 0.0 0.0 0.00 0.00 0.00 66 1019.3
20260831172255 26 45 0.0 0.0 0.00 0.00 0.00 65 1019.4
20260831171749 26 96 0.0 0.0 0.00 0.00 0.00 63 1019.4
20260831171247 26 319 0.0 0.0 0.00 0.00 0.00 65 1019.4
20260831170743 26 339 0.0 0.0 0.00 0.00 0.00 63 1019.2
20260831170239 26 257 0.0 0.0 0.00 0.00 0.00 65 1019.4
20260831165735 26 21 0.0 0.0 0.00 0.00 0.00 67 1019.4
20260831165232 25 158 0.0 0.0 0.00 0.00 0.00 66 1019.4
20260831164727 26 13 0.0 0.0 0.00 0.00 0.00 65 1019.5
20260831164223 27 141 0.0 0.0 0.00 0.00 0.00 63 1019.6
20260831163718 27 123 0.0 0.0 0.00 0.00 0.00 62 1019.4
20260831163214 26 357 0.0 0.0 0.00 0.00 0.00 63 1019.3
20260831162712 25 341 0.0 0.0 0.00 0.00 0.00 66 1019.5
20260831162212 26 59 0.0 0.0 0.00 0.00 0.00 63 1019.6
20260831161707 25 93 0.0 0.0 0.00 0.00 0.00 64 1019.6